Location: Poughquag
(41.6090°N, 73.6820°W)
Time: 16:33:52
(UTC-05:00)

Envisat - Pass Details

Date: 24 January 2020
Orbit: 764 x 766 km, 98.1° (Epoch: 24 February)

Event Time Altitude Azimuth Distance (km) Brightness Sun altitude
Rises 18:04:04 0° 177° (S) 3,218 6.4 -12.1°
Reaches altitude 10° 18:06:25 10° 182° (S) 2,296 5.7 -12.5°
Maximum altitude 18:11:22 56° 260° (W) 912 3.8 -13.4°
Drops below altitude 10° 18:16:23 10° 338° (NNW) 2,312 5.6 -14.3°
Sets 18:18:45 0° 343° (NNW) 3,242 6.3 -14.7°
